SCP
0 0 0 0 0 0 0 0 0 0 0 0 0 0 0 0 0 0 0 0 0 0 0 0 0 0 0 0 0 0 0 0 0 0 0 0 0 0 0 0 0 0 0
0 0 0 0 0 0 0 0 0 0 0 0 0 0 0 0 0 0 0 0 0 0 0 0 0 0 0 0 0 0 0 0 0 0 0 0 0 0 0 0 0 0 0
0 0 0 0 0 0 0 0 0 0 0 0 0 0 0 0 0 0 0 0 0 0 0 0 0 0 0 0 0 0 0 0 0 0 0 0 0 0 0 0 0 0 0
0 0 0 0 0 0 0 0 0 0 0 0 0 0 0 0 0 0 0 0 0 0 0 0 0 0 0 0 0 0 0 0 0 0 0 0 0 0 0 0 0 0 0
0 0 0 0 0 0 0 0 0 0 0 0 0 0 0 0 0 0 0 0 0 0 0 0 0 0 0 0 0 0 0 0 0 0 0 0 0 0 0 0 0 0 0
0 0 0 0 0 0 0 0 0 0 0 0 0 0 0 0 0 0 0 0 0 0 0 0 0 0 0 0 0 0 0 0 0 0 0 0 0 0 0 0 0 0 0
0 0 0 0 0 0 0 0 0 0 0 0 0 0 0 0 0 0 0 0 0 0 0 0 0 0 0 0 0 0 0 0 0 0 0 0 0 0 0 0 0 0 0
0 0 0 0 0 0 0 0 0 0 0 0 0 0 0 0 0 0 0 0 0 0 0 0 0 0 0 0 0 0 0 0 0 0 0 0 0 0 0 0 0 0 0
0 0 0 0 0 0 0 0 0 0 0 0 0 0 0 0 0 0 0 0 0 0 0 0 0 0 0 0 0 0 0 0 0 0 0 0 0 0 0 0 0 0 0
0 0 0 0 0 0 0 0 0 0 0 0 0 0 0 0 0 0 0 0 0 0 0 0 0 0 0 0 0 0 0 0 0 0 0 0 0 0 0 0 0 0 0
0 0 0 0 0 0 0 0 0 0 0 0 0 0 0 0 0 0 0 0 0 0 0 0 0 0 0 0 0 0 0 0 0 0 0 0 0 0 0 0 0 0 0
0 0 0 0 0 0 0 0 0 0 0 0 0 0 0 0 0 0 0 0 0 0 0 0 0 0 0 0 0 0 0 0 0 0 0 0 0 0 0 0 0 0 0
0 0 0 0 0 0 0 0 0 0 0 0 0 0 0 0 0 0 0 0 0 0 0 0 0 0 0 0 0 0 0 0 0 0 0 0 0 0 0 0 0 0 0
0 0 0 0 0 0 0 0 0 0 0 0 0 0 0 0 0 0 0 0 0 0 0 0 0 0 0 0 0 0 0 0 0 0 0 0 0 0 0 0 0 0 0
0 0 0 0 0 0 0 0 0 0 0 0 0 0 0 0 0 0 0 0 0 0 0 0 0 0 0 0 0 0 0 0 0 0 0 0 0 0 0 0 0 0 0
0 0 0 0 0 0 0 0 0 0 0 0 0 0 0 0 0 0 0 0 0 0 0 0 0 0 0 0 0 0 0 0 0 0 0 0 0 0 0 0 0 0 0
0 0 0 0 0 0 0 0 0 0 0 0 0 0 0 0 0 0 0 0 0 0 0 0 0 0 0 0 0 0 0 0 0 0 0 0 0 0 0 0 0 0 0
0 0 0 0 0 0 0 0 0 0 0 0 0 0 0 0 0 0 0 0 0 0 0 0 0 0 0 0 0 0 0 0 0 0 0 0 0 0 0 0 0 0 0
0 0 0 0 0 0 0 0 0 0 0 0 0 0 0 0 0 0 0 0 0 0 0 0 0 0 0 0 0 0 0 0 0 0 0 0 0 0 0 0 0 0 0
0 0 0 0 0 0 0 0 0 0 0 0 0 0 0 0 0 0 0 0 0 0 0 0 0 0 0 0 0 0 0 0 0 0 0 0 0 0 0 0 0 0 0
0 0 0 0 0 0 0 0 0 0 0 0 0 0 0 0 0 0 0 0 0 0 0 0 0 0 0 0 0 0 0 0 0 0 0 0 0 0 0 0 0 0 0
0 0 0 0 0 0 0 0 0 0 0 0 0 0 0 0 0 0 0 0 0 0 0 0 0 0 0 0 0 0 0 0 0 0 0 0 0 0 0 0 0 0 0
0 0 0 0 0 0 0 0 0 0 0 0 0 0 0 0 0 0 0 0 0 0 0 0 0 0 0 0 0 0 0 0 0 0 0 0 0 0 0 0 0 0 0
0 0 0 0 0 0 0 0 0 0 0 0 0 0 0 0 0 0 0 0 0 0 0 0 0 0 0 0 0 0 0 0 0 0 0 0 0 0 0 0 0 0 0
0 0 0 0 0 0 0 0 0 0 0 0 0 0 0 0 0 0 0 0 0 0 0 0 0 0 0 0 0 0 0 0 0 0 0 0 0 0 0 0 0 0 0
0 0 0 0 0 0 0 0 0 0 0 0 0 0 0 0 0 0 0 0 0 0 0 0 0 0 0 0 0 0 0 0 0 0 0 0 0 0 0 0 0 0 -0
Wind_Speed
11 10 10 10 10 11 11 11 11 10 10 11 10 9 9 8 7 6 6 5 5 4 4 4 5 4 3 3 3 3 4 4 7 6 4 4 5 6 7 5 6 6 7
10 9 10 10 10 11 10 11 11 11 10 10 10 9 9 8 8 8 7 6 6 6 5 5 5 3 4 3 3 4 4 5 5 9 5 4 5 6 6 6 6 6 5
9 9 9 10 11 11 10 10 11 11 10 9 9 10 9 9 8 7 7 7 6 6 6 6 5 4 5 4 4 5 4 5 5 6 7 4 4 4 5 6 7 6 7
9 10 10 10 10 10 10 10 10 10 10 10 9 9 9 8 8 7 6 6 6 5 5 5 5 6 6 6 5 6 5 5 5 6 7 5 4 5 4 5 6 4 6
9 9 9 8 8 8 9 9 9 9 10 9 8 7 7 7 7 7 6 6 6 5 5 5 6 8 10 8 6 5 5 5 5 5 6 5 5 4 4 4 7 6 6
10 9 8 8 8 9 9 9 9 8 8 8 8 8 7 6 10 12 8 6 6 6 6 6 6 7 10 13 15 13 10 7 5 5 5 6 7 5 5 5 6 7 6
9 8 9 9 9 9 9 9 9 9 7 7 7 7 7 7 10 12 11 6 6 6 6 5 5 6 9 6 10 14 12 15 14 9 7 7 7 6 6 7 7 7 8
9 8 8 9 9 8 9 9 8 6 7 7 7 7 6 6 10 10 10 6 5 5 6 6 6 6 6 7 6 6 7 8 10 7 7 8 8 7 7 8 8 8 7
9 9 9 10 9 9 9 8 6 6 6 5 6 6 6 5 8 9 7 3 4 5 5 5 5 6 11 13 7 6 7 7 11 15 16 15 18 18 14 6 5 6 7
10 9 9 9 10 10 9 7 5 5 5 5 5 5 5 5 7 7 6 3 3 4 4 5 8 9 12 13 6 5 7 7 6 7 9 11 10 11 15 7 4 6 6
8 8 8 8 8 8 7 5 6 5 5 4 4 3 3 4 5 7 6 3 4 4 3 4 5 11 13 14 11 6 10 10 6 5 5 5 5 5 5 5 4 4 5
9 8 8 7 7 7 7 6 6 6 5 4 3 2 2 2 3 6 8 7 5 3 4 4 5 12 13 14 10 11 15 13 4 3 4 4 4 4 5 5 5 5 5
9 8 8 7 6 7 7 7 5 5 4 4 3 3 2 2 3 6 8 8 8 4 4 8 10 11 11 8 11 14 11 4 3 4 5 5 4 4 4 3 4 4 5
10 8 8 8 6 5 5 5 5 5 4 4 3 3 2 2 3 3 3 4 6 5 4 6 10 10 7 8 8 7 4 4 4 4 5 4 3 3 3 3 3 3 3
9 8 7 6 6 5 4 4 5 4 5 5 4 4 4 4 5 6 4 3 3 4 3 1 1 2 3 3 4 4 4 4 5 4 4 4 4 4 3 2 2 2 2
9 7 6 5 5 5 4 3 2 3 4 4 4 3 3 5 6 7 8 8 8 8 4 2 3 3 4 4 4 4 4 4 4 4 4 4 4 4 3 3 2 2 3
9 8 6 5 5 5 4 4 2 1 2 1 1 2 3 5 6 6 8 8 8 7 3 3 4 4 4 4 4 4 4 4 4 4 4 4 3 3 3 3 3 3 3
8 8 7 5 5 5 4 4 3 3 1 1 1 3 4 5 5 6 6 5 3 3 2 4 4 4 4 4 4 4 4 4 3 4 4 4 3 3 3 3 3 3 3
7 6 5 5 4 4 4 3 3 3 2 1 1 2 4 4 5 6 5 2 3 4 4 4 4 4 4 4 4 4 4 4 4 4 4 4 3 3 3 3 3 6 4
6 9 8 5 5 4 3 3 3 2 2 2 2 2 2 2 2 3 3 3 4 4 4 4 4 5 4 4 4 4 4 4 4 4 4 4 3 3 4 4 3 3 3
6 6 9 6 4 4 3 3 3 2 2 3 3 4 5 2 3 4 4 4 4 4 5 5 4 4 4 4 4 5 5 5 4 4 4 4 3 3 3 3 3 3 3
5 5 4 4 3 3 3 3 3 3 3 3 3 4 7 3 3 4 4 4 4 4 4 4 4 4 4 4 5 5 5 5 4 4 4 4 4 4 3 3 3 2 2
6 5 4 3 3 3 3 2 2 2 3 3 3 3 3 3 4 4 5 4 4 4 4 4 5 4 4 4 5 5 5 5 5 4 4 4 4 4 3 3 3 3 3
5 5 4 3 3 2 2 2 2 2 3 3 3 4 4 4 4 5 5 4 4 4 4 4 5 6 8 6 5 5 5 6 5 5 6 6 5 4 4 4 4 4 3
5 4 4 3 3 2 2 2 2 3 3 3 4 4 4 4 4 5 5 5 5 5 6 6 5 6 8 8 7 6 10 13 11 6 5 5 6 6 5 4 4 3 3
4 4 3 2 2 2 2 2 3 3 3 4 4 4 4 5 5 5 5 5 5 5 6 5 6 8 8 7 9 11 14 13 13 12 5 4 5 5 5 4 5 4 4
Wind_Direction
177 178 176 178 175 174 179 181 178 175 172 175 175 173 174 175 174 174 183 181 190 202 203 206 224 221 224 226 220 218 218 210 256 274 256 267 272 276 287 283 279 281 287
177 175 176 173 171 175 179 178 174 174 176 176 172 173 177 179 179 182 188 190 195 205 212 214 231 230 235 234 229 233 234 225 241 276 282 274 265 268 272 277 285 289 281
173 174 173 173 175 179 177 173 173 173 172 172 172 177 181 182 184 189 190 195 202 208 209 215 228 225 241 243 241 243 247 252 242 264 281 272 266 269 278 280 280 282 285
173 175 179 180 178 176 171 169 171 170 170 174 178 181 182 183 185 188 190 197 206 213 215 219 225 224 236 243 249 248 252 257 258 264 276 278 268 265 268 280 291 277 282
174 179 183 174 167 163 165 167 166 168 172 172 173 176 179 182 189 187 191 196 204 218 226 229 233 240 247 253 258 252 248 255 262 268 276 282 279 280 274 271 288 290 276
176 180 170 163 163 164 165 163 163 166 166 167 175 179 185 195 202 201 194 195 203 215 232 240 246 252 262 271 276 278 274 271 269 265 274 275 277 269 270 275 285 297 294
172 169 166 164 165 165 162 161 167 169 167 172 178 181 192 203 203 207 207 198 207 218 228 238 253 257 270 264 276 285 287 286 284 281 277 275 277 270 272 276 273 276 280
168 168 166 164 163 160 161 167 169 165 170 176 181 186 190 204 207 213 213 206 215 226 230 233 242 254 260 268 260 264 262 268 277 280 263 266 267 268 259 269 277 281 271
171 172 170 165 162 162 168 170 165 163 171 176 179 181 188 209 213 217 213 198 221 238 241 240 246 251 269 281 279 269 272 271 281 284 285 288 292 298 300 297 295 296 297
177 170 164 163 164 169 171 164 158 162 170 169 175 182 188 203 216 219 216 193 222 243 250 252 259 267 277 286 279 268 275 276 273 284 288 294 297 298 301 295 282 286 292
155 149 153 159 162 160 155 151 150 149 149 159 169 181 192 206 219 226 228 207 217 232 245 250 254 275 283 286 287 272 278 290 281 275 279 283 287 285 283 276 262 256 269
139 143 147 148 147 144 143 144 146 147 150 160 167 188 208 217 225 239 245 250 253 232 242 245 257 281 287 290 291 289 295 302 297 291 288 283 282 282 277 273 269 260 253
135 140 140 138 136 141 146 147 145 148 154 167 175 196 221 224 241 254 259 263 268 260 252 272 282 287 291 291 292 297 303 300 287 284 283 278 270 269 274 281 283 281 279
137 138 137 136 134 134 138 147 152 160 163 171 184 202 220 231 240 243 245 256 266 271 272 279 289 294 295 294 296 299 291 272 279 270 273 272 272 274 273 269 279 298 302
133 134 134 135 139 137 137 153 161 175 176 177 190 192 200 230 241 252 255 241 240 247 274 252 262 277 274 275 276 272 267 275 283 271 272 279 283 283 280 272 269 285 283
136 138 138 137 134 134 130 104 104 138 175 184 189 195 225 249 269 270 277 282 286 289 293 265 262 262 266 271 275 276 270 269 267 267 269 271 277 280 281 281 270 272 282
142 143 139 138 139 141 142 143 136 67 83 113 194 240 264 277 282 283 287 291 292 296 279 264 265 266 266 265 265 265 267 267 261 260 264 264 267 272 276 278 281 285 283
134 138 139 142 143 146 149 151 152 158 176 281 288 282 291 294 295 296 299 308 296 287 256 259 263 266 266 265 263 261 264 268 261 257 259 258 255 260 266 270 276 275 281
133 135 134 134 136 139 141 143 151 165 186 226 285 294 295 300 299 296 302 265 257 261 258 259 261 262 264 263 262 259 257 259 257 254 256 254 250 248 255 262 270 287 292
131 139 137 136 135 137 142 151 162 175 195 219 240 255 272 290 268 273 263 251 253 259 260 261 261 260 260 258 258 258 258 257 255 251 251 250 245 243 250 254 260 269 274
130 137 135 131 140 149 156 167 175 184 207 229 245 261 275 260 249 254 256 254 251 255 258 259 260 261 258 255 254 254 254 255 249 245 245 243 240 242 241 242 251 257 268
130 132 136 142 146 154 163 171 179 197 219 238 257 272 282 280 263 263 262 262 256 253 254 255 256 253 248 248 250 253 254 254 250 244 243 241 237 237 234 235 246 253 261
129 132 133 138 147 163 159 171 191 211 231 245 255 262 266 260 260 263 264 266 264 263 260 256 259 259 254 250 245 242 247 251 247 240 239 241 234 230 228 233 239 247 253
133 139 144 149 154 164 176 196 212 229 240 249 255 258 258 258 261 267 268 269 268 268 264 260 259 261 263 261 254 247 244 248 243 236 231 231 230 228 224 228 235 240 245
135 141 148 157 166 175 189 209 229 242 251 259 262 264 265 267 268 271 270 268 269 270 270 267 264 265 266 265 262 257 263 268 267 252 224 223 224 220 219 224 229 236 236
134 141 148 157 170 184 200 223 241 250 256 263 266 264 265 268 270 271 271 269 269 270 271 268 263 262 264 266 265 267 271 271 271 266 244 215 213 216 213 219 224 229 230